Météo par heure à Kyulekyan

Ce jour, 24 Juillet, Samedi

Heure Température Précipitation Vent Pression Humidité
00:00 +17°C° 0 mm 2 m/s 746 mmHg 58%
01:00 +17°C° 0 mm 2 m/s 746 mmHg 60%
02:00 +16°C° 0 mm 2 m/s 746 mmHg 62%
03:00 +17°C° 0 mm 2 m/s 746 mmHg 60%
04:00 +18°C° 0 mm 2 m/s 746 mmHg 58%
05:00 +19°C° 0 mm 2 m/s 746 mmHg 55%
06:00 +21°C° 0 mm 2 m/s 746 mmHg 51%
07:00 +22°C° 0 mm 3 m/s 746 mmHg 47%
08:00 +24°C° 0 mm 3 m/s 746 mmHg 43%
09:00 +25°C° 0 mm 4 m/s 746 mmHg 40%
10:00 +25°C° 0 mm 4 m/s 746 mmHg 38%
11:00 +26°C° 0 mm 4 m/s 746 mmHg 35%
12:00 +26°C° 0 mm 5 m/s 746 mmHg 35%
13:00 +26°C° 0 mm 5 m/s 746 mmHg 35%
14:00 +25°C° 0 mm 5 m/s 746 mmHg 36%
15:00 +23°C° 0 mm 6 m/s 746 mmHg 40%
16:00 +22°C° 0 mm 6 m/s 746 mmHg 44%
17:00 +21°C° 0 mm 7 m/s 746 mmHg 48%
18:00 +20°C° 0 mm 6 m/s 746 mmHg 54%
19:00 +19°C° 0 mm 6 m/s 747 mmHg 60%
20:00 +16°C° 0 mm 5 m/s 747 mmHg 66%
21:00 +16°C° 0 mm 5 m/s 747 mmHg 70%
22:00 +15°C° 0 mm 5 m/s 747 mmHg 74%
23:00 +14°C° 0 mm 5 m/s 747 mmHg 77%

Demain, 25 Juillet, Dimanche

Heure Température Précipitation Vent Pression Humidité
00:00 +14°C° 0 mm 5 m/s 747 mmHg 78%
01:00 +13°C° 0 mm 5 m/s 747 mmHg 79%
02:00 +13°C° 0 mm 5 m/s 747 mmHg 81%
03:00 +13°C° 0 mm 6 m/s 748 mmHg 78%
04:00 +14°C° 0 mm 6 m/s 748 mmHg 76%
05:00 +15°C° 0 mm 6 m/s 748 mmHg 73%
06:00 +16°C° 0 mm 7 m/s 748 mmHg 67%
07:00 +17°C° 0 mm 7 m/s 749 mmHg 62%
08:00 +18°C° 0 mm 7 m/s 749 mmHg 56%
09:00 +20°C° 0 mm 7 m/s 749 mmHg 52%
10:00 +21°C° 0 mm 7 m/s 749 mmHg 48%
11:00 +22°C° 0 mm 6 m/s 749 mmHg 44%
12:00 +22°C° 0 mm 6 m/s 749 mmHg 40%
13:00 +23°C° 0 mm 6 m/s 749 mmHg 36%
14:00 +23°C° 0 mm 5 m/s 749 mmHg 32%
15:00 +23°C° 0 mm 5 m/s 749 mmHg 34%
16:00 +23°C° 0 mm 4 m/s 749 mmHg 36%
17:00 +23°C° 0 mm 4 m/s 749 mmHg 38%
18:00 +22°C° 0 mm 3 m/s 749 mmHg 43%
19:00 +21°C° 0 mm 2 m/s 749 mmHg 48%
20:00 +20°C° 0 mm 2 m/s 749 mmHg 53%
21:00 +20°C° 0 mm 1 m/s 748 mmHg 55%
22:00 +19°C° 0 mm 1 m/s 748 mmHg 56%
23:00 +18°C° 0 mm 1 m/s 748 mmHg 58%

Après-demain, 26 Juillet, Lundi

Heure Température Précipitation Vent Pression Humidité
00:00 +19°C° 0 mm 1 m/s 748 mmHg 56%
01:00 +18°C° 0 mm 2 m/s 748 mmHg 55%
02:00 +18°C° 0 mm 2 m/s 748 mmHg 54%
03:00 +19°C° 0 mm 2 m/s 748 mmHg 55%
04:00 +20°C° 0 mm 1 m/s 748 mmHg 56%
05:00 +20°C° 0 mm 1 m/s 748 mmHg 58%
06:00 +21°C° 0 mm 1 m/s 748 mmHg 58%
07:00 +21°C° 0 mm 1 m/s 748 mmHg 58%
08:00 +21°C° 0 mm 1 m/s 748 mmHg 58%
09:00 +23°C° 0 mm 1 m/s 748 mmHg 56%
10:00 +24°C° 0 mm 1 m/s 748 mmHg 54%
11:00 +26°C° 0 mm 1 m/s 748 mmHg 51%
12:00 +25°C° 0.2 mm 1 m/s 747 mmHg 54%
13:00 +25°C° 0.2 mm 1 m/s 747 mmHg 57%
14:00 +25°C° 0.2 mm 1 m/s 747 mmHg 61%
15:00 +24°C° 0.9 mm 2 m/s 747 mmHg 66%
16:00 +24°C° 0.9 mm 2 m/s 747 mmHg 71%
17:00 +22°C° 0.9 mm 3 m/s 747 mmHg 76%
18:00 +21°C° 0.6 mm 3 m/s 747 mmHg 80%
19:00 +20°C° 0.6 mm 3 m/s 747 mmHg 84%
20:00 +19°C° 0.6 mm 3 m/s 747 mmHg 89%
21:00 +19°C° 0 mm 2 m/s 747 mmHg 90%
22:00 +18°C° 0 mm 2 m/s 748 mmHg 91%
23:00 +17°C° 0 mm 2 m/s 748 mmHg 92%

27 Juillet, Mardi

Heure Température Précipitation Vent Pression Humidité
00:00 +17°C° 0 mm 2 m/s 748 mmHg 91%
01:00 +16°C° 0 mm 2 m/s 748 mmHg 90%
02:00 +16°C° 0 mm 3 m/s 748 mmHg 90%
03:00 +17°C° 0 mm 3 m/s 748 mmHg 88%
04:00 +17°C° 0 mm 3 m/s 748 mmHg 86%
05:00 +18°C° 0 mm 3 m/s 748 mmHg 84%
06:00 +18°C° 0 mm 3 m/s 748 mmHg 80%
07:00 +19°C° 0 mm 4 m/s 748 mmHg 77%
08:00 +20°C° 0 mm 4 m/s 748 mmHg 74%
09:00 +20°C° 0 mm 5 m/s 748 mmHg 68%
10:00 +21°C° 0 mm 5 m/s 748 mmHg 62%
11:00 +22°C° 0 mm 6 m/s 748 mmHg 56%
12:00 +22°C° 0 mm 6 m/s 748 mmHg 52%
13:00 +23°C° 0 mm 7 m/s 748 mmHg 47%
14:00 +23°C° 0 mm 7 m/s 748 mmHg 42%
15:00 +22°C° 0 mm 7 m/s 748 mmHg 42%
16:00 +22°C° 0 mm 7 m/s 748 mmHg 41%
17:00 +21°C° 0 mm 7 m/s 748 mmHg 41%
18:00 +20°C° 0 mm 6 m/s 748 mmHg 45%
19:00 +19°C° 0 mm 6 m/s 748 mmHg 48%
20:00 +17°C° 0 mm 5 m/s 748 mmHg 52%
21:00 +16°C° 0 mm 5 m/s 748 mmHg 56%
22:00 +14°C° 0 mm 5 m/s 748 mmHg 60%
23:00 +13°C° 0 mm 5 m/s 747 mmHg 64%

28 Juillet, Mercredi

Heure Température Précipitation Vent Pression Humidité
00:00 +11°C° 0 mm 6 m/s 747 mmHg 65%
01:00 +11°C° 0 mm 6 m/s 748 mmHg 65%
02:00 +10°C° 0 mm 6 m/s 748 mmHg 66%
03:00 +10°C° 0 mm 7 m/s 748 mmHg 64%
04:00 +10°C° 0 mm 7 m/s 748 mmHg 62%
05:00 +10°C° 0 mm 7 m/s 748 mmHg 60%
06:00 +11°C° 0 mm 7 m/s 748 mmHg 57%
07:00 +14°C° 0 mm 6 m/s 748 mmHg 55%
08:00 +15°C° 0 mm 6 m/s 748 mmHg 53%
09:00 +17°C° 0 mm 6 m/s 748 mmHg 49%
10:00 +19°C° 0 mm 5 m/s 748 mmHg 45%
11:00 +21°C° 0 mm 5 m/s 748 mmHg 42%
12:00 +22°C° 0 mm 4 m/s 748 mmHg 40%
13:00 +22°C° 0 mm 4 m/s 748 mmHg 37%
14:00 +24°C° 0 mm 3 m/s 748 mmHg 35%
15:00 +24°C° 0 mm 3 m/s 748 mmHg 35%
16:00 +24°C° 0 mm 3 m/s 748 mmHg 35%
17:00 +24°C° 0 mm 3 m/s 748 mmHg 35%
18:00 +21°C° 0 mm 3 m/s 748 mmHg 39%
19:00 +20°C° 0 mm 2 m/s 748 mmHg 42%
20:00 +19°C° 0 mm 2 m/s 748 mmHg 46%
21:00 +17°C° 0 mm 2 m/s 748 mmHg 45%
22:00 +16°C° 0 mm 2 m/s 748 mmHg 45%
23:00 +14°C° 0 mm 2 m/s 748 mmHg 45%

29 Juillet, Jeudi

Heure Température Précipitation Vent Pression Humidité
00:00 +14°C° 0 mm 2 m/s 748 mmHg 49%
01:00 +13°C° 0 mm 2 m/s 748 mmHg 53%
02:00 +12°C° 0 mm 3 m/s 748 mmHg 56%
03:00 +12°C° 0 mm 3 m/s 747 mmHg 57%
04:00 +12°C° 0 mm 3 m/s 747 mmHg 58%
05:00 +12°C° 0 mm 3 m/s 747 mmHg 59%
06:00 +13°C° 0 mm 3 m/s 747 mmHg 56%
07:00 +14°C° 0 mm 3 m/s 747 mmHg 52%
08:00 +14°C° 0 mm 3 m/s 747 mmHg 49%
09:00 +16°C° 0 mm 3 m/s 747 mmHg 46%
10:00 +17°C° 0 mm 3 m/s 747 mmHg 43%
11:00 +18°C° 0 mm 3 m/s 747 mmHg 41%
12:00 +18°C° 0 mm 4 m/s 747 mmHg 38%
13:00 +19°C° 0 mm 5 m/s 747 mmHg 35%
14:00 +19°C° 0 mm 6 m/s 747 mmHg 32%
15:00 +17°C° 0 mm 6 m/s 748 mmHg 33%
16:00 +17°C° 0 mm 6 m/s 748 mmHg 34%
17:00 +16°C° 0 mm 5 m/s 748 mmHg 36%
18:00 +15°C° 0 mm 5 m/s 748 mmHg 38%
19:00 +14°C° 0 mm 4 m/s 749 mmHg 41%
20:00 +13°C° 0 mm 3 m/s 749 mmHg 43%
21:00 +12°C° 0 mm 3 m/s 749 mmHg 46%
22:00 +11°C° 0 mm 3 m/s 749 mmHg 49%
23:00 +10°C° 0 mm 2 m/s 749 mmHg 51%
Voir plus

Nous avons besoin de votre consentement

Meteoprog et ses fournisseurs de services peuvent stocker et accéder à des données personnelles telles que des cookies, des identifiants d'appareils ou d'autres technologies similaires sur votre appareil et traiter ces données pour personnaliser le contenu et les publicités, ainsi que pour fournir des fonctionnalités de médias sociaux et analyser le trafic.

  • Stocker et/ou accéder à des informations sur votre appareil

    Des cookies, des identifiants d'appareils ou d'autres informations peuvent être stockés ou accessibles sur votre appareil aux fins indiquées ci-dessus.

  • Annonces et contenus personnalisés, mesure des annonces et des contenus, connaissance de l'audience et développement de produits

    Les annonces et le contenu peuvent être personnalisés en fonction d'un profil. D'autres données peuvent être ajoutées pour mieux personnaliser les annonces et le contenu. Les performances des publicités et du contenu peuvent être mesurées. Il est possible d'obtenir des informations sur le public qui a vu les publicités et le contenu. Ces données peuvent être utilisées pour développer ou améliorer l'expérience de l'utilisateur, les systèmes et les logiciels.

En cliquant sur "J'accepte", vous autorisez l'utilisation de cookies, des identifiants d'appareils, des balises web ou d'autres technologies similaires. Vos paramètres peuvent être modifiés dans le navigateur de votre appareil.

Dans certains cas, des intérêts légitimes peuvent être invoqués plutôt qu'un consentement. Vous pouvez en savoir plus à ce sujet dans notre Politique de confidentialité et de cookies.